Time,TemperatureF,DewpointF,PressureIn,WindDirection,WindDirectionDegrees,WindSpeedMPH,WindSpeedGustMPH,Humidity,HourlyPrecipIn,Conditions,Clouds,dailyrainin,SoftwareType,DateUTC
2013-05-07 00:02:00,50.0,46.0,-100.00,SW,225,3.0,4.0,85,-99.99,,,-99.99,,2013-05-07 07:02:00,
2013-05-07 00:11:00,50.0,46.0,-100.00,SW,225,3.0,3.0,85,-99.99,,,-99.99,,2013-05-07 07:11:00,
2013-05-07 00:22:00,50.0,46.0,-100.00,West,270,2.0,3.0,85,-99.99,,,-99.99,,2013-05-07 07:22:00,
2013-05-07 00:31:00,50.0,46.0,-100.00,West,270,2.0,3.0,85,-99.99,,,-99.99,,2013-05-07 07:31:00,
2013-05-07 00:42:00,50.0,45.0,-100.00,West,270,3.0,6.0,85,-99.99,,,-99.99,,2013-05-07 07:42:00,
2013-05-07 00:52:00,50.0,45.0,-100.00,SW,225,4.0,7.0,85,-99.99,,,-99.99,,2013-05-07 07:52:00,
2013-05-07 01:02:00,50.0,45.0,-100.00,SW,225,4.0,7.0,85,-99.99,,,-99.99,,2013-05-07 08:02:00,
2013-05-07 01:11:00,50.0,45.0,-100.00,West,270,2.0,4.0,85,-99.99,,,-99.99,,2013-05-07 08:11:00,
2013-05-07 01:21:00,50.0,46.0,-100.00,West,270,2.0,4.0,86,-99.99,,,-99.99,,2013-05-07 08:21:00,
2013-05-07 01:31:00,50.0,46.0,-100.00,West,270,2.0,4.0,86,-99.99,,,-99.99,,2013-05-07 08:31:00,
2013-05-07 01:41:00,50.0,46.0,-100.00,SW,225,3.0,5.0,86,-99.99,,,-99.99,,2013-05-07 08:41:00,
2013-05-07 01:52:00,50.0,46.0,-100.00,SW,225,1.0,3.0,86,-99.99,,,-99.99,,2013-05-07 08:52:00,
2013-05-07 02:01:00,50.0,46.0,-100.00,SW,225,1.0,3.0,86,-99.99,,,-99.99,,2013-05-07 09:01:00,
2013-05-07 02:11:00,50.0,46.0,-100.00,West,270,3.0,4.0,86,-99.99,,,-99.99,,2013-05-07 09:11:00,
2013-05-07 02:22:00,50.0,46.0,-100.00,West,270,4.0,5.0,86,-99.99,,,-99.99,,2013-05-07 09:22:00,
2013-05-07 02:33:00,50.0,46.0,-100.00,West,270,4.0,5.0,86,-99.99,,,-99.99,,2013-05-07 09:33:00,
2013-05-07 02:42:00,50.0,46.0,-100.00,West,270,3.0,5.0,86,-99.99,,,-99.99,,2013-05-07 09:42:00,
2013-05-07 02:52:00,50.0,45.0,-100.00,West,270,3.0,5.0,85,-99.99,,,-99.99,,2013-05-07 09:52:00,
2013-05-07 03:02:00,50.0,45.0,-100.00,West,270,3.0,5.0,85,-99.99,,,-99.99,,2013-05-07 10:02:00,
2013-05-07 03:12:00,50.0,45.0,-100.00,West,270,1.0,2.0,85,-99.99,,,-99.99,,2013-05-07 10:12:00,
2013-05-07 03:23:00,50.0,45.0,-100.00,West,270,3.0,4.0,86,-99.99,,,-99.99,,2013-05-07 10:23:00,
2013-05-07 03:32:00,50.0,45.0,-100.00,West,270,3.0,4.0,86,-99.99,,,-99.99,,2013-05-07 10:32:00,
2013-05-07 03:42:00,49.0,45.0,-100.00,North,-999,0.0,0.0,86,-99.99,,,-99.99,,2013-05-07 10:42:00,
2013-05-07 03:52:00,49.0,45.0,-100.00,SW,225,4.0,6.0,86,-99.99,,,-99.99,,2013-05-07 10:52:00,
2013-05-07 04:02:00,49.0,45.0,-100.00,SW,225,4.0,6.0,86,-99.99,,,-99.99,,2013-05-07 11:02:00,
2013-05-07 04:12:00,49.0,45.0,-100.00,West,270,2.0,4.0,86,-99.99,,,-99.99,,2013-05-07 11:12:00,
2013-05-07 04:22:00,49.0,45.0,-100.00,SW,225,1.0,1.0,86,-99.99,,,-99.99,,2013-05-07 11:22:00,
2013-05-07 04:32:00,49.0,45.0,-100.00,SW,225,1.0,1.0,86,-99.99,,,-99.99,,2013-05-07 11:32:00,
2013-05-07 04:42:00,49.0,45.0,-100.00,SW,225,1.0,2.0,86,-99.99,,,-99.99,,2013-05-07 11:42:00,
2013-05-07 04:52:00,49.0,45.0,-100.00,West,270,1.0,3.0,86,-99.99,,,-99.99,,2013-05-07 11:52:00,
2013-05-07 05:01:00,49.0,45.0,-100.00,West,270,1.0,3.0,86,-99.99,,,-99.99,,2013-05-07 12:01:00,
2013-05-07 05:11:00,49.0,45.0,-100.00,West,270,1.0,3.0,86,-99.99,,,-99.99,,2013-05-07 12:11:00,
2013-05-07 05:21:00,49.0,45.0,-100.00,West,270,1.0,3.0,86,-99.99,,,-99.99,,2013-05-07 12:21:00,
2013-05-07 05:32:00,49.0,45.0,-100.00,West,270,1.0,3.0,86,-99.99,,,-99.99,,2013-05-07 12:32:00,
2013-05-07 05:42:00,49.0,45.0,-100.00,West,270,2.0,4.0,86,-99.99,,,-99.99,,2013-05-07 12:42:00,
2013-05-07 05:52:00,49.0,45.0,-100.00,West,270,1.0,5.0,87,-99.99,,,-99.99,,2013-05-07 12:52:00,
2013-05-07 06:02:00,49.0,45.0,-100.00,West,270,1.0,5.0,87,-99.99,,,-99.99,,2013-05-07 13:02:00,
2013-05-07 06:11:00,49.0,45.0,-100.00,SW,225,2.0,4.0,87,-99.99,,,-99.99,,2013-05-07 13:11:00,
2013-05-07 06:21:00,49.0,45.0,-100.00,West,270,2.0,4.0,87,-99.99,,,-99.99,,2013-05-07 13:21:00,
2013-05-07 06:32:00,49.0,45.0,-100.00,West,270,2.0,4.0,87,-99.99,,,-99.99,,2013-05-07 13:32:00,
2013-05-07 06:42:00,48.0,45.0,-100.00,West,270,3.0,4.0,87,-99.99,,,-99.99,,2013-05-07 13:42:00,
2013-05-07 06:52:00,48.0,45.0,-100.00,West,270,1.0,3.0,87,-99.99,,,-99.99,,2013-05-07 13:52:00,
2013-05-07 07:02:00,48.0,45.0,-100.00,West,270,1.0,3.0,87,-99.99,,,-99.99,,2013-05-07 14:02:00,
2013-05-07 07:11:00,48.0,45.0,-100.00,West,270,1.0,3.0,87,-99.99,,,-99.99,,2013-05-07 14:11:00,
2013-05-07 07:21:00,49.0,45.0,-100.00,SW,225,2.0,3.0,87,-99.99,,,-99.99,,2013-05-07 14:21:00,
2013-05-07 07:31:00,49.0,45.0,-100.00,SW,225,2.0,3.0,87,-99.99,,,-99.99,,2013-05-07 14:31:00,
2013-05-07 07:42:00,49.0,45.0,-100.00,West,270,1.0,2.0,87,-99.99,,,-99.99,,2013-05-07 14:42:00,
2013-05-07 07:52:00,49.0,45.0,-100.00,West,270,2.0,3.0,87,-99.99,,,-99.99,,2013-05-07 14:52:00,
2013-05-07 08:01:00,49.0,45.0,-100.00,West,270,2.0,3.0,87,-99.99,,,-99.99,,2013-05-07 15:01:00,
2013-05-07 08:03:00,49.0,45.0,-100.00,SW,225,0.0,1.0,86,-99.99,,,-99.99,,2013-05-07 15:03:00,
2013-05-07 08:12:00,49.0,45.0,-100.00,West,270,1.0,2.0,87,-99.99,,,-99.99,,2013-05-07 15:12:00,
2013-05-07 08:21:00,49.0,45.0,-100.00,West,270,0.0,1.0,87,-99.99,,,-99.99,,2013-05-07 15:21:00,
2013-05-07 08:33:00,49.0,45.0,-100.00,West,270,0.0,1.0,87,-99.99,,,-99.99,,2013-05-07 15:33:00,
2013-05-07 08:42:00,49.0,45.0,-100.00,SW,225,0.0,1.0,86,-99.99,,,-99.99,,2013-05-07 15:42:00,
2013-05-07 08:53:00,49.0,45.0,-100.00,SW,225,0.0,1.0,86,-99.99,,,-99.99,,2013-05-07 15:53:00,
2013-05-07 11:21:00,53.0,45.0,-100.00,SW,225,3.0,5.0,76,-99.99,,,-99.99,,2013-05-07 18:21:00,
2013-05-07 11:31:00,53.0,45.0,-100.00,SW,225,3.0,5.0,76,-99.99,,,-99.99,,2013-05-07 18:31:00,
2013-05-07 11:41:00,53.0,45.0,-100.00,West,270,3.0,6.0,75,-99.99,,,-99.99,,2013-05-07 18:41:00,
2013-05-07 11:52:00,54.0,45.0,-100.00,SW,225,3.0,4.0,74,-99.99,,,-99.99,,2013-05-07 18:52:00,
2013-05-07 12:02:00,54.0,45.0,-100.00,SW,225,3.0,4.0,74,-99.99,,,-99.99,,2013-05-07 19:02:00,
2013-05-07 12:11:00,54.0,45.0,-100.00,West,270,4.0,6.0,74,-99.99,,,-99.99,,2013-05-07 19:11:00,
2013-05-07 12:21:00,53.0,45.0,-100.00,West,270,2.0,4.0,74,-99.99,,,-99.99,,2013-05-07 19:21:00,
2013-05-07 12:31:00,53.0,45.0,-100.00,West,270,2.0,4.0,74,-99.99,,,-99.99,,2013-05-07 19:31:00,
2013-05-07 12:42:00,53.0,45.0,-100.00,West,270,2.0,4.0,74,-99.99,,,-99.99,,2013-05-07 19:42:00,
2013-05-07 12:52:00,55.0,46.0,-100.00,West,270,3.0,5.0,72,-99.99,,,-99.99,,2013-05-07 19:52:00,
2013-05-07 13:02:00,55.0,46.0,-100.00,West,270,3.0,5.0,72,-99.99,,,-99.99,,2013-05-07 20:02:00,
2013-05-07 13:11:00,55.0,46.0,-100.00,West,270,3.0,4.0,71,-99.99,,,-99.99,,2013-05-07 20:11:00,
2013-05-07 13:21:00,56.0,46.0,-100.00,SW,225,4.0,8.0,68,-99.99,,,-99.99,,2013-05-07 20:21:00,
2013-05-07 13:32:00,56.0,46.0,-100.00,SW,225,4.0,8.0,68,-99.99,,,-99.99,,2013-05-07 20:32:00,
2013-05-07 13:42:00,59.0,46.0,-100.00,SW,225,4.0,5.0,63,-99.99,,,-99.99,,2013-05-07 20:42:00,
2013-05-07 13:52:00,58.0,46.0,-100.00,West,270,6.0,10.0,63,-99.99,,,-99.99,,2013-05-07 20:52:00,
2013-05-07 14:01:00,58.0,46.0,-100.00,West,270,6.0,10.0,63,-99.99,,,-99.99,,2013-05-07 21:01:00,
2013-05-07 14:11:00,60.0,46.0,-100.00,West,270,4.0,7.0,60,-99.99,,,-99.99,,2013-05-07 21:11:00,
2013-05-07 14:21:00,60.0,46.0,-100.00,West,270,4.0,7.0,60,-99.99,,,-99.99,,2013-05-07 21:21:00,
2013-05-07 14:32:00,60.0,46.0,-100.00,West,270,4.0,7.0,60,-99.99,,,-99.99,,2013-05-07 21:32:00,
2013-05-07 14:43:00,60.0,45.0,-100.00,SW,225,5.0,8.0,58,-99.99,,,-99.99,,2013-05-07 21:43:00,
2013-05-07 14:53:00,61.0,46.0,-100.00,West,270,4.0,6.0,58,-99.99,,,-99.99,,2013-05-07 21:53:00,
2013-05-07 15:02:00,61.0,46.0,-100.00,West,270,4.0,6.0,58,-99.99,,,-99.99,,2013-05-07 22:02:00,
2013-05-07 15:13:00,61.0,46.0,-100.00,SW,225,3.0,4.0,58,-99.99,,,-99.99,,2013-05-07 22:13:00,
2013-05-07 15:22:00,61.0,46.0,-100.00,SW,225,4.0,5.0,58,-99.99,,,-99.99,,2013-05-07 22:22:00,
2013-05-07 15:32:00,61.0,46.0,-100.00,SW,225,4.0,5.0,58,-99.99,,,-99.99,,2013-05-07 22:32:00,
2013-05-07 15:42:00,61.0,46.0,-100.00,SW,225,6.0,10.0,58,-99.99,,,-99.99,,2013-05-07 22:42:00,
2013-05-07 15:52:00,61.0,45.0,-100.00,SW,225,6.0,9.0,57,-99.99,,,-99.99,,2013-05-07 22:52:00,
2013-05-07 16:02:00,61.0,45.0,-100.00,SW,225,6.0,9.0,57,-99.99,,,-99.99,,2013-05-07 23:02:00,
2013-05-07 16:12:00,61.0,46.0,-100.00,NW,315,4.0,11.0,58,-99.99,,,-99.99,,2013-05-07 23:12:00,
2013-05-07 16:21:00,59.0,46.0,-100.00,West,270,4.0,8.0,61,-99.99,,,-99.99,,2013-05-07 23:21:00,
2013-05-07 16:32:00,59.0,46.0,-100.00,West,270,4.0,8.0,61,-99.99,,,-99.99,,2013-05-07 23:32:00,
2013-05-07 16:41:00,60.0,46.0,-100.00,West,270,5.0,9.0,60,-99.99,,,-99.99,,2013-05-07 23:41:00,
2013-05-07 16:52:00,59.0,45.0,-100.00,SW,225,7.0,9.0,61,-99.99,,,-99.99,,2013-05-07 23:52:00,
2013-05-07 17:01:00,59.0,45.0,-100.00,SW,225,7.0,9.0,61,-99.99,,,-99.99,,2013-05-08 00:01:00,
2013-05-07 17:11:00,58.0,45.0,-100.00,West,270,7.0,11.0,62,-99.99,,,-99.99,,2013-05-08 00:11:00,
2013-05-07 17:21:00,57.0,45.0,-100.00,SW,225,7.0,12.0,64,-99.99,,,-99.99,,2013-05-08 00:21:00,
2013-05-07 17:32:00,57.0,45.0,-100.00,SW,225,7.0,12.0,64,-99.99,,,-99.99,,2013-05-08 00:32:00,
2013-05-07 17:42:00,57.0,45.0,-100.00,SW,225,6.0,9.0,65,-99.99,,,-99.99,,2013-05-08 00:42:00,
2013-05-07 17:52:00,56.0,45.0,-100.00,SW,225,6.0,11.0,66,-99.99,,,-99.99,,2013-05-08 00:52:00,
2013-05-07 18:02:00,56.0,45.0,-100.00,SW,225,6.0,11.0,66,-99.99,,,-99.99,,2013-05-08 01:02:00,
2013-05-07 18:11:00,56.0,45.0,-100.00,West,270,4.0,6.0,67,-99.99,,,-99.99,,2013-05-08 01:11:00,
2013-05-07 18:21:00,55.0,45.0,-100.00,West,270,3.0,4.0,69,-99.99,,,-99.99,,2013-05-08 01:21:00,
2013-05-07 18:31:00,54.0,45.0,-100.00,West,270,3.0,4.0,71,-99.99,,,-99.99,,2013-05-08 01:31:00,
2013-05-07 18:42:00,54.0,45.0,-100.00,West,270,3.0,4.0,71,-99.99,,,-99.99,,2013-05-08 01:42:00,
2013-05-07 18:52:00,54.0,45.0,-100.00,NW,315,1.0,3.0,72,-99.99,,,-99.99,,2013-05-08 01:52:00,
2013-05-07 19:01:00,54.0,45.0,-100.00,NW,315,1.0,3.0,72,-99.99,,,-99.99,,2013-05-08 02:01:00,
2013-05-07 19:12:00,54.0,45.0,-100.00,West,270,3.0,6.0,73,-99.99,,,-99.99,,2013-05-08 02:12:00,
2013-05-07 19:22:00,53.0,45.0,-100.00,NW,315,1.0,2.0,74,-99.99,,,-99.99,,2013-05-08 02:22:00,
2013-05-07 19:31:00,53.0,45.0,-100.00,West,270,2.0,4.0,75,-99.99,,,-99.99,,2013-05-08 02:31:00,
2013-05-07 19:42:00,53.0,45.0,-100.00,West,270,2.0,4.0,75,-99.99,,,-99.99,,2013-05-08 02:42:00,
2013-05-07 19:52:00,53.0,45.0,-100.00,West,270,1.0,3.0,76,-99.99,,,-99.99,,2013-05-08 02:52:00,
2013-05-07 20:01:00,52.0,45.0,-100.00,NW,315,2.0,5.0,77,-99.99,,,-99.99,,2013-05-08 03:01:00,
2013-05-07 20:11:00,52.0,45.0,-100.00,NW,315,2.0,5.0,77,-99.99,,,-99.99,,2013-05-08 03:11:00,
2013-05-07 20:21:00,52.0,45.0,-100.00,West,270,3.0,5.0,78,-99.99,,,-99.99,,2013-05-08 03:21:00,
2013-05-07 20:32:00,52.0,45.0,-100.00,West,270,3.0,5.0,78,-99.99,,,-99.99,,2013-05-08 03:32:00,
2013-05-07 20:43:00,51.0,45.0,-100.00,SW,225,3.0,4.0,79,-99.99,,,-99.99,,2013-05-08 03:43:00,
2013-05-07 20:52:00,51.0,45.0,-100.00,West,270,1.0,3.0,79,-99.99,,,-99.99,,2013-05-08 03:52:00,
2013-05-07 21:02:00,51.0,45.0,-100.00,West,270,2.0,4.0,80,-99.99,,,-99.99,,2013-05-08 04:02:00,
2013-05-07 21:12:00,51.0,45.0,-100.00,West,270,2.0,4.0,80,-99.99,,,-99.99,,2013-05-08 04:12:00,
2013-05-07 21:22:00,51.0,45.0,-100.00,SW,225,3.0,6.0,81,-99.99,,,-99.99,,2013-05-08 04:22:00,
2013-05-07 21:33:00,51.0,45.0,-100.00,SW,225,3.0,6.0,81,-99.99,,,-99.99,,2013-05-08 04:33:00,
2013-05-07 21:42:00,51.0,45.0,-100.00,West,270,2.0,4.0,81,-99.99,,,-99.99,,2013-05-08 04:42:00,
2013-05-07 21:53:00,50.0,45.0,-100.00,West,270,1.0,3.0,82,-99.99,,,-99.99,,2013-05-08 04:53:00,
2013-05-07 22:02:00,50.0,45.0,-100.00,West,270,1.0,3.0,82,-99.99,,,-99.99,,2013-05-08 05:02:00,
2013-05-07 22:12:00,50.0,45.0,-100.00,West,270,3.0,3.0,82,-99.99,,,-99.99,,2013-05-08 05:12:00,
2013-05-07 22:22:00,50.0,45.0,-100.00,West,270,1.0,2.0,82,-99.99,,,-99.99,,2013-05-08 05:22:00,
2013-05-07 22:32:00,50.0,45.0,-100.00,West,270,1.0,2.0,82,-99.99,,,-99.99,,2013-05-08 05:32:00,
2013-05-07 22:42:00,50.0,45.0,-100.00,SW,225,4.0,9.0,82,-99.99,,,-99.99,,2013-05-08 05:42:00,
2013-05-07 22:52:00,50.0,44.0,-100.00,West,270,3.0,6.0,82,-99.99,,,-99.99,,2013-05-08 05:52:00,
2013-05-07 23:01:00,50.0,44.0,-100.00,West,270,3.0,6.0,82,-99.99,,,-99.99,,2013-05-08 06:01:00,
2013-05-07 23:12:00,50.0,44.0,-100.00,West,270,3.0,4.0,82,-99.99,,,-99.99,,2013-05-08 06:12:00,
2013-05-07 23:21:00,49.0,44.0,-100.00,West,270,3.0,5.0,82,-99.99,,,-99.99,,2013-05-08 06:21:00,
2013-05-07 23:32:00,49.0,44.0,-100.00,West,270,3.0,5.0,82,-99.99,,,-99.99,,2013-05-08 06:32:00,
2013-05-07 23:41:00,49.0,44.0,-100.00,West,270,4.0,6.0,83,-99.99,,,-99.99,,2013-05-08 06:41:00,
2013-05-07 23:52:00,49.0,44.0,-100.00,NW,315,1.0,2.0,83,-99.99,,,-99.99,,2013-05-08 06:52:00,